Stündliche Wetter Warszkowko

Heute, 22 Oktober, Donnerstag

Zeit Temperatur Niederschläge Wind Luftdruck Luftfeuchtigkeit
00:00 +11°C° 0 mm 7 m/S 750 mmHg 73%
01:00 +12°C° 0 mm 7 m/S 749 mmHg 70%
02:00 +12°C° 0 mm 8 m/S 749 mmHg 71%
03:00 +12°C° 0 mm 8 m/S 749 mmHg 72%
04:00 +12°C° 0 mm 9 m/S 749 mmHg 72%
05:00 +12°C° 0 mm 9 m/S 749 mmHg 74%
06:00 +13°C° 0 mm 10 m/S 749 mmHg 76%
07:00 +13°C° 0 mm 10 m/S 750 mmHg 79%
08:00 +14°C° 0 mm 10 m/S 750 mmHg 77%
09:00 +14°C° 0 mm 10 m/S 751 mmHg 76%
10:00 +14°C° 0 mm 10 m/S 752 mmHg 75%
11:00 +16°C° 0 mm 9 m/S 752 mmHg 73%
12:00 +16°C° 0 mm 9 m/S 753 mmHg 71%
13:00 +17°C° 0 mm 8 m/S 753 mmHg 69%
14:00 +17°C° 0 mm 7 m/S 753 mmHg 70%
15:00 +16°C° 0 mm 6 m/S 753 mmHg 72%
16:00 +16°C° 0 mm 5 m/S 753 mmHg 73%
17:00 +15°C° 0 mm 5 m/S 753 mmHg 75%
18:00 +14°C° 0 mm 5 m/S 753 mmHg 77%
19:00 +14°C° 0 mm 5 m/S 753 mmHg 78%
20:00 +14°C° 0 mm 5 m/S 753 mmHg 81%
21:00 +14°C° 0 mm 5 m/S 753 mmHg 83%
22:00 +13°C° 0 mm 5 m/S 753 mmHg 85%
23:00 +14°C° 0.6 mm 5 m/S 753 mmHg 86%

Morgen, 23 Oktober, Freitag

Zeit Temperatur Niederschläge Wind Luftdruck Luftfeuchtigkeit
00:00 +14°C° 0.6 mm 6 m/S 752 mmHg 87%
01:00 +14°C° 0.6 mm 6 m/S 752 mmHg 88%
02:00 +14°C° 0.4 mm 6 m/S 752 mmHg 89%
03:00 +14°C° 0.4 mm 6 m/S 752 mmHg 90%
04:00 +13°C° 0.4 mm 6 m/S 752 mmHg 91%
05:00 +13°C° 0.1 mm 6 m/S 752 mmHg 91%
06:00 +13°C° 0.1 mm 6 m/S 752 mmHg 92%
07:00 +11°C° 0.1 mm 6 m/S 752 mmHg 92%
08:00 +12°C° 0 mm 7 m/S 752 mmHg 87%
09:00 +12°C° 0 mm 7 m/S 752 mmHg 82%
10:00 +12°C° 0 mm 7 m/S 753 mmHg 78%
11:00 +12°C° 0 mm 7 m/S 753 mmHg 76%
12:00 +13°C° 0 mm 6 m/S 753 mmHg 74%
13:00 +14°C° 0 mm 6 m/S 753 mmHg 73%
14:00 +13°C° 0 mm 5 m/S 753 mmHg 75%
15:00 +12°C° 0 mm 4 m/S 753 mmHg 78%
16:00 +12°C° 0 mm 3 m/S 753 mmHg 80%
17:00 +12°C° 0 mm 2 m/S 753 mmHg 82%
18:00 +12°C° 0 mm 2 m/S 753 mmHg 84%
19:00 +12°C° 0 mm 1 m/S 753 mmHg 86%
20:00 +12°C° 0 mm 1 m/S 753 mmHg 86%
21:00 +12°C° 0 mm 1 m/S 753 mmHg 87%
22:00 +12°C° 0 mm 1 m/S 753 mmHg 87%
23:00 +12°C° 0 mm 2 m/S 753 mmHg 88%

übermorgen, 24 Oktober, Samstag

Zeit Temperatur Niederschläge Wind Luftdruck Luftfeuchtigkeit
00:00 +10°C° 0 mm 2 m/S 753 mmHg 89%
01:00 +10°C° 0 mm 2 m/S 753 mmHg 90%
02:00 +10°C° 0 mm 2 m/S 752 mmHg 91%
03:00 +10°C° 0 mm 2 m/S 752 mmHg 92%
04:00 +10°C° 0 mm 3 m/S 752 mmHg 93%
05:00 +10°C° 0 mm 3 m/S 752 mmHg 94%
06:00 +10°C° 0 mm 3 m/S 752 mmHg 94%
07:00 +10°C° 0 mm 4 m/S 752 mmHg 95%
08:00 +10°C° 0 mm 5 m/S 752 mmHg 91%
09:00 +11°C° 0 mm 6 m/S 753 mmHg 88%
10:00 +12°C° 0 mm 7 m/S 753 mmHg 84%
11:00 +12°C° 0 mm 7 m/S 753 mmHg 82%
12:00 +12°C° 0 mm 7 m/S 754 mmHg 80%
13:00 +11°C° 0 mm 7 m/S 754 mmHg 78%
14:00 +11°C° 0 mm 6 m/S 754 mmHg 78%
15:00 +12°C° 0 mm 5 m/S 754 mmHg 79%
16:00 +11°C° 0 mm 4 m/S 754 mmHg 79%
17:00 +11°C° 0.1 mm 4 m/S 755 mmHg 81%
18:00 +11°C° 0.1 mm 3 m/S 755 mmHg 83%
19:00 +11°C° 0.1 mm 3 m/S 755 mmHg 86%
20:00 +11°C° 0 mm 3 m/S 756 mmHg 87%
21:00 +10°C° 0 mm 3 m/S 756 mmHg 89%
22:00 +10°C° 0 mm 3 m/S 756 mmHg 90%
23:00 +9°C° 0 mm 3 m/S 756 mmHg 90%

, 25 Oktober, Sonntag

Zeit Temperatur Niederschläge Wind Luftdruck Luftfeuchtigkeit
00:00 +9°C° 0 mm 3 m/S 756 mmHg 90%
01:00 +8°C° 0 mm 3 m/S 756 mmHg 90%
02:00 +8°C° 0 mm 3 m/S 756 mmHg 90%
03:00 +8°C° 0 mm 3 m/S 756 mmHg 89%
04:00 +8°C° 0 mm 3 m/S 756 mmHg 89%
05:00 +8°C° 0 mm 4 m/S 756 mmHg 89%
06:00 +10°C° 0 mm 4 m/S 756 mmHg 88%
07:00 +10°C° 0 mm 4 m/S 755 mmHg 88%
08:00 +10°C° 0 mm 5 m/S 756 mmHg 84%
09:00 +12°C° 0 mm 5 m/S 756 mmHg 80%
10:00 +13°C° 0 mm 5 m/S 756 mmHg 77%
11:00 +14°C° 0 mm 5 m/S 756 mmHg 74%
12:00 +15°C° 0 mm 5 m/S 755 mmHg 71%
13:00 +15°C° 0 mm 5 m/S 755 mmHg 68%
14:00 +15°C° 0 mm 5 m/S 755 mmHg 69%
15:00 +14°C° 0 mm 4 m/S 754 mmHg 70%
16:00 +14°C° 0 mm 4 m/S 754 mmHg 72%
17:00 +13°C° 0 mm 4 m/S 754 mmHg 74%
18:00 +13°C° 0 mm 4 m/S 754 mmHg 77%
19:00 +12°C° 0 mm 5 m/S 754 mmHg 79%
20:00 +12°C° 0 mm 5 m/S 754 mmHg 80%
21:00 +12°C° 0 mm 5 m/S 754 mmHg 81%
22:00 +12°C° 0 mm 5 m/S 754 mmHg 81%
23:00 +10°C° 0 mm 5 m/S 754 mmHg 83%

25 Oktober, Sonntag

Zeit Temperatur Niederschläge Wind Luftdruck Luftfeuchtigkeit
00:00 +9°C° 0 mm 3 m/S 756 mmHg 90%
01:00 +8°C° 0 mm 3 m/S 756 mmHg 90%
02:00 +8°C° 0 mm 3 m/S 756 mmHg 90%
03:00 +8°C° 0 mm 3 m/S 756 mmHg 89%
04:00 +8°C° 0 mm 3 m/S 756 mmHg 89%
05:00 +8°C° 0 mm 4 m/S 756 mmHg 89%
06:00 +10°C° 0 mm 4 m/S 756 mmHg 88%
07:00 +10°C° 0 mm 4 m/S 755 mmHg 88%
08:00 +10°C° 0 mm 5 m/S 756 mmHg 84%
09:00 +12°C° 0 mm 5 m/S 756 mmHg 80%
10:00 +13°C° 0 mm 5 m/S 756 mmHg 77%
11:00 +14°C° 0 mm 5 m/S 756 mmHg 74%
12:00 +15°C° 0 mm 5 m/S 755 mmHg 71%
13:00 +15°C° 0 mm 5 m/S 755 mmHg 68%
14:00 +15°C° 0 mm 5 m/S 755 mmHg 69%
15:00 +14°C° 0 mm 4 m/S 754 mmHg 70%
16:00 +14°C° 0 mm 4 m/S 754 mmHg 72%
17:00 +13°C° 0 mm 4 m/S 754 mmHg 74%
18:00 +13°C° 0 mm 4 m/S 754 mmHg 77%
19:00 +12°C° 0 mm 5 m/S 754 mmHg 79%
20:00 +12°C° 0 mm 5 m/S 754 mmHg 80%
21:00 +12°C° 0 mm 5 m/S 754 mmHg 81%
22:00 +12°C° 0 mm 5 m/S 754 mmHg 81%
23:00 +10°C° 0 mm 5 m/S 754 mmHg 83%

26 Oktober, Montag

Zeit Temperatur Niederschläge Wind Luftdruck Luftfeuchtigkeit
00:00 +10°C° 0 mm 5 m/S 754 mmHg 85%
01:00 +10°C° 0 mm 5 m/S 754 mmHg 87%
02:00 +9°C° 0 mm 5 m/S 754 mmHg 87%
03:00 +9°C° 0 mm 5 m/S 753 mmHg 88%
04:00 +9°C° 0 mm 5 m/S 753 mmHg 89%
05:00 +9°C° 0 mm 5 m/S 753 mmHg 89%
06:00 +8°C° 0 mm 5 m/S 753 mmHg 90%
07:00 +8°C° 0 mm 5 m/S 753 mmHg 90%
08:00 +9°C° 0 mm 5 m/S 753 mmHg 85%
09:00 +12°C° 0 mm 5 m/S 753 mmHg 79%
10:00 +13°C° 0 mm 4 m/S 753 mmHg 74%
11:00 +14°C° 0 mm 4 m/S 752 mmHg 70%
12:00 +14°C° 0 mm 4 m/S 752 mmHg 66%
13:00 +15°C° 0 mm 4 m/S 752 mmHg 63%
14:00 +15°C° 0 mm 4 m/S 751 mmHg 66%
15:00 +14°C° 0 mm 4 m/S 751 mmHg 69%
16:00 +13°C° 0 mm 3 m/S 751 mmHg 73%
17:00 +12°C° 0 mm 3 m/S 751 mmHg 77%
18:00 +12°C° 0 mm 3 m/S 751 mmHg 82%
19:00 +11°C° 0 mm 3 m/S 751 mmHg 87%
20:00 +11°C° 0 mm 3 m/S 750 mmHg 88%
21:00 +11°C° 0 mm 3 m/S 750 mmHg 90%
22:00 +11°C° 0 mm 3 m/S 750 mmHg 91%
23:00 +11°C° 0 mm 3 m/S 750 mmHg 91%

27 Oktober, Dienstag

Zeit Temperatur Niederschläge Wind Luftdruck Luftfeuchtigkeit
00:00 +11°C° 0 mm 3 m/S 750 mmHg 90%
01:00 +11°C° 0 mm 3 m/S 750 mmHg 90%
02:00 +11°C° 0 mm 3 m/S 750 mmHg 90%
03:00 +11°C° 0 mm 3 m/S 750 mmHg 91%
04:00 +11°C° 0 mm 3 m/S 750 mmHg 92%
05:00 +10°C° 0 mm 3 m/S 750 mmHg 92%
06:00 +10°C° 0 mm 3 m/S 750 mmHg 92%
07:00 +10°C° 0 mm 3 m/S 750 mmHg 92%
08:00 +11°C° 0 mm 3 m/S 750 mmHg 88%
09:00 +12°C° 0 mm 3 m/S 750 mmHg 84%
10:00 +13°C° 0 mm 3 m/S 750 mmHg 80%
11:00 +14°C° 0 mm 3 m/S 751 mmHg 75%
12:00 +14°C° 0 mm 3 m/S 751 mmHg 70%
13:00 +16°C° 0 mm 3 m/S 751 mmHg 66%
14:00 +16°C° 0.1 mm 3 m/S 751 mmHg 69%
15:00 +14°C° 0.1 mm 3 m/S 751 mmHg 73%
16:00 +13°C° 0.1 mm 3 m/S 752 mmHg 76%
17:00 +12°C° 0 mm 3 m/S 752 mmHg 80%
18:00 +12°C° 0 mm 3 m/S 752 mmHg 84%
19:00 +11°C° 0 mm 3 m/S 753 mmHg 88%
20:00 +11°C° 0 mm 3 m/S 753 mmHg 91%
21:00 +11°C° 0 mm 3 m/S 753 mmHg 93%
22:00 +10°C° 0 mm 3 m/S 754 mmHg 95%
23:00 +10°C° 0 mm 3 m/S 754 mmHg 96%
Mehr zeigen

Wir brauchen deine Erlaubnis

Meteoprog und unser Service Anbieter werden persönliche Daten aufbewahren, so wie Cookies, Geräte Bezeichnung oder ähnliche Technologien von deinem Gerät und Prozess, so wie Persönliche Daten Inhalte und Werbungen, genauso wie social Media und den Verkehr zu analysieren.

  • Aufbewahrung und/oder Zugang zu deiner Geräte Informationen.

    Cookies, Geräte Bezeichnung oder andere Informationen, können aufbewahrt oder Zugang zu deinem Gerät erhalten, für den Grund, der oben angegeben wird.

  • Personalisierte Werbung und Inhalte, Messungen, Einblick in das Publikum und Produkt Entwicklung.

    Werbungen und Inhalte können personalisiert werden, basierend auf ein Profil. Mehr Daten können besser personalisierte Werbungen und Inhalte hinzufügen. Werbung und Inhalte können gezeigt und gemessen werden. Einblicke über das Publikum, welche die Werbung gesehen haben und den Inhalt, können abgeleitet werden. So wie Daten können genutzt werden, um es zu verbessern oder die Benutzer Erfahrung zu verbessern das System und die Software.

Wenn du “Ich stimme zu” klickst, erlaubst du uns, die Cookies zu benutzen die Geräte Bezeichnung, den Web oder ähnliche Technologien zu benutzen. Deine Settings, können in deinem Gerät bei deinem Browser geändert werden.

Für den bestimmten Zweck, berechtigten Interessen beruhen darauf, mehr als auf den Inhalt. Du kannst mehr darüber in unseren Privaten und Cookie Politik lesen.